Pasco, WA

1:08 AM PST on January 23, 2018 (GMT -0800)
Tri-Cities

Weather History for KPSC - April, 2014

Change the Weather History Date:

Friday, April 11, 2014

  Actual Average Record
Temperature  
Mean Temperature 55 °F 52 °F  
Max Temperature 73 °F 66 °F 81 °F (2000)
Min Temperature 36 °F 38 °F 27 °F (1999)
Degree Days  
Heating Degree Days 10 13  
Month to date heating degree days 105 151  
Since 1 July heating degree days 4893 4612  
Cooling Degree Days 0 0  
Month to date cooling degree days 0 0  
Year to date cooling degree days 0 0  
Growing Degree Days 6 (Base 50)    
Moisture  
Dew Point 34 °F    
Average Humidity 50    
Maximum Humidity 79    
Minimum Humidity 20    
Precipitation  
Precipitation 0.00 in 0.02 in 0.45 in (1982)
Month to date precipitation 0.02 0.26  
Year to date precipitation 1.76 3.13  
Snow  
Snow 0.00 in - - ()
Snow Depth 0.00 in    
Sea Level Pressure  
Sea Level Pressure 29.97 in    
Wind  
Wind Speed 4 mph (NW)    
Max Wind Speed 21 mph    
Max Gust Speed 26 mph    
Visibility 10 miles    
Events      
T = Trace of Precipitation, MM = Missing Value Source: NWS Daily Summary

Daily Weather History Graph

Daily Weather History Graph

Search for Another Location

Airport or City:

Trip Planner

Search our weather history database for the weather conditions in past years. The results will help you decide how hot, cold, wet, or windy it might be!

Date:

Astronomy

Apr. 11, 2014 Rise Set
Actual Time 6:17 AM PDT 7:38 PM PDT
Civil Twilight 5:45 AM PDT 8:09 PM PDT
Nautical Twilight 5:08 AM PDT 8:47 PM PDT
Astronomical Twilight 4:28 AM PDT 9:27 PM PDT
Moon 4:13 PM PDT (4/11) 4:26 AM PDT (4/11)
Length of Visible Light 14h 23m
Length of Day
13h 21m
Waxing Gibbous, 87% of the Moon is Illuminated
Apr 11
Waxing Gibbous
Apr 15
Full
Apr 22
Last Quarter
Apr 28
New
May 6
First Quarter

Hourly Weather History & Observations

Time (PDT) Temp. Windchill Dew Point Humidity Pressure Visibility Wind Dir Wind Speed Gust Speed Precip Events Conditions
12:53 AM 46.0 °F - 37.0 °F 71% 30.04 in 10.0 mi Calm Calm - N/A   Clear
1:53 AM 44.1 °F - 36.0 °F 73% 30.03 in 10.0 mi Calm Calm - N/A   Clear
2:53 AM 41.0 °F 39.0 °F 36.0 °F 82% 30.03 in 10.0 mi NE 3.5 mph - N/A   Clear
3:53 AM 41.0 °F - 36.0 °F 82% 30.04 in 10.0 mi Calm Calm - N/A   Clear
4:53 AM 42.1 °F - 35.1 °F 76% 30.03 in 10.0 mi Calm Calm - N/A   Clear
5:53 AM 39.0 °F 36.8 °F 34.0 °F 82% 30.03 in 10.0 mi ESE 3.5 mph - N/A   Clear
6:53 AM 39.0 °F - 34.0 °F 82% 30.03 in 10.0 mi Calm Calm - N/A   Clear
7:53 AM 46.0 °F - 39.0 °F 76% 30.02 in 10.0 mi Calm Calm - N/A   Clear
8:53 AM 53.1 °F - 37.9 °F 57% 30.02 in 10.0 mi NW 3.5 mph - N/A   Clear
9:53 AM 59.0 °F - 36.0 °F 42% 30.02 in 10.0 mi Calm Calm - N/A   Clear
10:53 AM 63.0 °F - 34.0 °F 34% 30.02 in 10.0 mi Calm Calm - N/A   Clear
11:53 AM 66.0 °F - 32.0 °F 28% 30.00 in 10.0 mi Calm Calm - N/A   Clear
12:53 PM 68.0 °F - 30.9 °F 25% 29.97 in 10.0 mi Variable 6.9 mph - N/A   Clear
1:53 PM 71.1 °F - 30.9 °F 23% 29.95 in 10.0 mi West 9.2 mph - N/A   Clear
2:53 PM 73.0 °F - 30.9 °F 21% 29.92 in 10.0 mi WSW 10.4 mph - N/A   Clear
3:53 PM 72.0 °F - 33.1 °F 24% 29.89 in 10.0 mi South 9.2 mph - N/A   Clear
4:53 PM 72.0 °F - 35.1 °F 26% 29.88 in 10.0 mi NW 15.0 mph - N/A   Clear
5:53 PM 68.0 °F - 34.0 °F 28% 29.88 in 10.0 mi NNW 15.0 mph - N/A   Clear
6:53 PM 64.9 °F - 33.1 °F 31% 29.88 in 10.0 mi NNW 11.5 mph - N/A   Clear
7:53 PM 59.0 °F - 30.9 °F 35% 29.89 in 10.0 mi North 12.7 mph - N/A   Clear
8:53 PM 57.9 °F - 30.9 °F 36% 29.90 in 10.0 mi NNW 16.1 mph - N/A   Clear
9:53 PM 55.0 °F - 32.0 °F 42% 29.91 in 10.0 mi NNW 12.7 mph - N/A   Clear
10:53 PM 54.0 °F - 33.1 °F 45% 29.92 in 10.0 mi NW 8.1 mph - N/A   Clear
11:44 PM 51.1 °F - 34.0 °F 52% 29.93 in 10.0 mi NNW 11.5 mph - N/A   Clear
11:53 PM 48.0 °F - 35.1 °F 61% 29.94 in 10.0 mi NNW 10.4 mph - N/A   Clear